Location: Newark
(43.6583°N, 1.6617°E)
Time: 04:03:38
(UTC+00:00)

Tiros 1 - Pass Details

Date: 31 August 2019
Orbit: 631 x 664 km, 48.4° (Epoch: 18 September)

Event Time Altitude Azimuth Distance (km) Brightness Sun altitude
Rises 19:05:30 0° 200° (SSW) 2,912 10.5 -6.8°
Reaches altitude 10° 19:08:18 10° 183° (S) 2,004 9.5 -7.3°
Maximum altitude 19:11:39 20° 136° (SE) 1,453 8.4 -7.8°
Drops below altitude 10° 19:15:01 10° 89° (E) 2,007 9.1 -8.4°
Enters shadow 19:15:28 - 86° (E) 2,139 9.3 -8.5°
